TimeCDT,TemperatureF,Dew PointF,Humidity,Sea Level PressureIn,VisibilityMPH,Wind Direction,Wind SpeedMPH,Gust SpeedMPH,PrecipitationIn,Events,Conditions,WindDirDegrees,DateUTC
12:15 AM,42.4,32.2,67,29.98,10.0,NE,3.5,-,N/A,,Clear,50,2012-10-31 05:15:00
12:35 AM,42.8,32.0,66,29.98,10.0,NE,3.5,-,N/A,,Clear,50,2012-10-31 05:35:00
12:55 AM,42.3,31.8,67,29.98,10.0,NE,5.8,-,N/A,,Clear,50,2012-10-31 05:55:00
1:15 AM,42.4,31.5,65,29.99,10.0,NE,6.9,-,N/A,,Clear,40,2012-10-31 06:15:00
1:35 AM,42.8,30.9,63,29.99,10.0,NE,6.9,-,N/A,,Clear,40,2012-10-31 06:35:00
1:55 AM,42.1,30.9,65,30.00,10.0,NE,6.9,-,N/A,,Clear,40,2012-10-31 06:55:00
2:15 AM,41.5,30.9,66,30.00,10.0,NE,4.6,-,N/A,,Clear,40,2012-10-31 07:15:00
2:35 AM,41.4,30.6,65,30.00,10.0,NE,3.5,-,N/A,,Scattered Clouds,40,2012-10-31 07:35:00
2:55 AM,41.4,30.9,66,30.00,10.0,NNE,3.5,-,N/A,,Mostly Cloudy,30,2012-10-31 07:55:00
3:15 AM,41.4,30.9,66,30.01,10.0,NE,4.6,-,N/A,,Mostly Cloudy,40,2012-10-31 08:15:00
3:35 AM,40.8,30.4,66,30.01,10.0,NE,4.6,-,N/A,,Scattered Clouds,40,2012-10-31 08:35:00
3:55 AM,39.9,29.8,67,30.01,10.0,NE,3.5,-,N/A,,Clear,50,2012-10-31 08:55:00
4:15 AM,40.1,28.9,64,30.01,10.0,Calm,Calm,-,N/A,,Clear,0,2012-10-31 09:15:00
4:35 AM,39.9,28.8,64,30.01,10.0,Calm,Calm,-,N/A,,Clear,0,2012-10-31 09:35:00
4:55 AM,38.1,28.9,70,30.00,10.0,Calm,Calm,-,N/A,,Clear,0,2012-10-31 09:55:00
5:15 AM,36.3,29.8,77,30.00,10.0,Calm,Calm,-,N/A,,Clear,0,2012-10-31 10:15:00
5:35 AM,34.7,31.3,87,30.00,10.0,Calm,Calm,-,N/A,,Clear,0,2012-10-31 10:35:00
5:55 AM,33.8,32.0,93,29.99,10.0,Calm,Calm,-,N/A,,Clear,0,2012-10-31 10:55:00
6:15 AM,33.8,32.5,95,29.99,10.0,Calm,Calm,-,N/A,,Clear,0,2012-10-31 11:15:00
6:35 AM,33.8,33.8,100,30.01,10.0,North,3.5,-,N/A,,Clear,10,2012-10-31 11:35:00
6:55 AM,33.8,33.8,100,30.01,10.0,Calm,Calm,-,N/A,,Clear,0,2012-10-31 11:55:00
7:15 AM,33.8,33.6,99,30.02,10.0,North,3.5,-,N/A,,Clear,360,2012-10-31 12:15:00
7:35 AM,35.1,32.0,89,30.03,10.0,Calm,Calm,-,N/A,,Clear,0,2012-10-31 12:35:00
7:55 AM,33.8,32.2,94,30.04,10.0,Calm,Calm,-,N/A,,Clear,0,2012-10-31 12:55:00
8:15 AM,33.8,33.3,98,30.05,10.0,Calm,Calm,-,N/A,,Clear,0,2012-10-31 13:15:00
8:35 AM,34.3,34.2,99,30.06,10.0,Calm,Calm,-,N/A,,Clear,0,2012-10-31 13:35:00
8:55 AM,37.6,34.5,89,30.06,10.0,Calm,Calm,-,N/A,,Clear,0,2012-10-31 13:55:00
9:15 AM,40.6,32.4,72,30.06,10.0,Calm,Calm,-,N/A,,Clear,0,2012-10-31 14:15:00
9:35 AM,43.2,31.5,63,30.07,10.0,Calm,Calm,-,N/A,,Clear,0,2012-10-31 14:35:00
9:55 AM,46.0,32.0,58,30.07,10.0,Calm,Calm,-,N/A,,Clear,0,2012-10-31 14:55:00
10:15 AM,48.0,32.5,55,30.07,10.0,ENE,3.5,-,N/A,,Clear,60,2012-10-31 15:15:00
10:35 AM,49.1,32.4,53,30.06,7.0,Calm,Calm,-,N/A,,Clear,0,2012-10-31 15:35:00
10:55 AM,50.5,31.5,48,30.06,10.0,Calm,Calm,-,N/A,,Clear,0,2012-10-31 15:55:00
11:15 AM,52.9,31.5,44,30.07,10.0,Calm,Calm,-,N/A,,Clear,0,2012-10-31 16:15:00
11:35 AM,54.0,30.9,41,30.08,10.0,West,3.5,-,N/A,,Clear,270,2012-10-31 16:35:00
11:55 AM,54.3,30.0,39,30.07,10.0,North,4.6,-,N/A,,Clear,360,2012-10-31 16:55:00
12:15 PM,55.2,29.3,37,30.07,10.0,NNW,5.8,-,N/A,,Clear,330,2012-10-31 17:15:00
12:35 PM,56.1,30.0,37,30.07,10.0,Calm,Calm,-,N/A,,Clear,0,2012-10-31 17:35:00
12:55 PM,56.5,30.2,37,30.06,10.0,North,4.6,-,N/A,,Clear,350,2012-10-31 17:55:00
1:15 PM,56.7,30.7,37,30.05,10.0,Calm,Calm,-,N/A,,Clear,0,2012-10-31 18:15:00
1:35 PM,58.1,32.0,37,30.05,10.0,North,4.6,-,N/A,,Clear,360,2012-10-31 18:35:00
1:55 PM,59.0,32.4,37,30.04,10.0,NNW,5.8,-,N/A,,Clear,330,2012-10-31 18:55:00
2:15 PM,59.0,32.4,37,30.03,10.0,North,3.5,-,N/A,,Clear,360,2012-10-31 19:15:00
2:55 PM,59.0,31.8,36,30.01,10.0,Calm,Calm,-,N/A,,Clear,0,2012-10-31 19:55:00
3:15 PM,59.5,32.5,36,30.01,10.0,NNW,3.5,-,N/A,,Clear,340,2012-10-31 20:15:00
3:35 PM,59.5,32.5,36,30.01,10.0,Calm,Calm,-,N/A,,Clear,0,2012-10-31 20:35:00
3:55 PM,59.4,32.2,36,30.01,10.0,Calm,Calm,-,N/A,,Clear,0,2012-10-31 20:55:00
4:15 PM,59.9,32.2,35,30.01,10.0,NW,4.6,-,N/A,,Clear,320,2012-10-31 21:15:00
4:35 PM,60.1,32.7,36,30.01,10.0,Calm,Calm,-,N/A,,Clear,0,2012-10-31 21:35:00
4:55 PM,59.4,32.9,37,30.01,10.0,NNW,3.5,-,N/A,,Clear,340,2012-10-31 21:55:00
5:15 PM,59.0,33.4,38,30.00,10.0,Calm,Calm,-,N/A,,Clear,0,2012-10-31 22:15:00
5:35 PM,59.0,33.8,39,30.00,10.0,Calm,Calm,-,N/A,,Clear,0,2012-10-31 22:35:00
5:55 PM,59.0,34.0,39,30.00,10.0,Calm,Calm,-,N/A,,Clear,0,2012-10-31 22:55:00
6:15 PM,57.4,34.2,42,30.00,10.0,Calm,Calm,-,N/A,,Clear,0,2012-10-31 23:15:00
6:35 PM,55.4,34.9,46,30.01,10.0,Calm,Calm,-,N/A,,Clear,0,2012-10-31 23:35:00
6:55 PM,52.5,35.1,51,30.01,10.0,Calm,Calm,-,N/A,,Clear,0,2012-10-31 23:55:00
7:15 PM,49.1,36.1,61,-9999,10.0,Calm,Calm,-,N/A,,Clear,0,2012-11-01 00:15:00
7:35 PM,48.6,37.4,65,30.01,10.0,Calm,Calm,-,N/A,,Clear,0,2012-11-01 00:35:00
7:55 PM,46.9,37.2,69,30.02,10.0,Calm,Calm,-,N/A,,Clear,0,2012-11-01 00:55:00
8:15 PM,45.0,36.5,72,30.02,10.0,Calm,Calm,-,N/A,,Clear,0,2012-11-01 01:15:00
8:35 PM,43.9,35.8,73,30.02,10.0,Calm,Calm,-,N/A,,Clear,0,2012-11-01 01:35:00
8:55 PM,42.6,35.8,77,30.02,10.0,Calm,Calm,-,N/A,,Clear,0,2012-11-01 01:55:00
9:15 PM,42.6,35.8,77,30.03,10.0,Calm,Calm,-,N/A,,Clear,0,2012-11-01 02:15:00
9:35 PM,42.3,36.0,78,30.02,10.0,Calm,Calm,-,N/A,,Clear,0,2012-11-01 02:35:00
9:55 PM,40.6,36.9,86,30.03,10.0,Calm,Calm,-,N/A,,Clear,0,2012-11-01 02:55:00
10:15 PM,40.1,37.9,92,30.03,10.0,Calm,Calm,-,N/A,,Clear,0,2012-11-01 03:15:00
10:35 PM,40.1,37.6,91,30.03,10.0,Calm,Calm,-,N/A,,Clear,0,2012-11-01 03:35:00
10:55 PM,39.6,36.9,90,30.03,10.0,Calm,Calm,-,N/A,,Clear,0,2012-11-01 03:55:00
11:15 PM,38.8,37.9,97,30.03,10.0,Calm,Calm,-,N/A,,Clear,0,2012-11-01 04:15:00
11:35 PM,38.8,38.5,99,30.02,10.0,Calm,Calm,-,N/A,,Clear,0,2012-11-01 04:35:00
11:55 PM,38.8,39.0,100,30.03,10.0,Calm,Calm,-,N/A,,Clear,0,2012-11-01 04:55:00